Home   Weather   Langenfeld (Rheinland)   Past weeks

Flag for Germany Past Weather in Langenfeld (Rheinland), North Rhine-Westphalia, Germany — Yesterday and Last 2 Weeks

Now
61 °F

Partly sunny.


Feels Like: 61 °F
Forecast: 59 / 74 °F
Wind: 7 mph from South

Location: Duesseldorf

Current Time: Sep 28, 2016 at 8:55:13 AM

Latest Report: Sep 28, 2016 at 8:20 AM


Visibility: N/A

Pressure: 30.27 "Hg

Humidity: 63%

Dew Point: 48 °F

Location of Langenfeld (Rheinland)Location

Past Weather in Langenfeld (Rheinland) — Graph

°F

Langenfeld (Rheinland) Temperature Yesterday

Maximum temperature yesterday: 72 °F (at 2:50 PM)
Minimum temperature yesterday: 45 °F (at 7:20 AM)
Average temperature yesterday: 59 °F

High & Low Weather Summary for the Past Weeks

 TemperatureHumidityPressure
High90 °F (Sep 13, 2:20 PM)100% (Sep 16, 2:20 AM)30.33 "Hg (Sep 16, 2:20 AM)
Low45 °F (Sep 27, 7:20 AM)27% (Sep 14, 3:50 PM)29.77 "Hg (Sep 15, 4:20 PM)
Average64 °F70%30.07 "Hg
* Reported Sep 13 7:20 AM — Sep 28 7:20 AM, Langenfeld (Rheinland), Weather by CustomWeather, © 2016

Note: Actual official high and low records may vary slightly from our data, if they occured in-between our weather recording intervals... More about our weather records

Advertising

Langenfeld (Rheinland) Weather History for the Previous 24 Hours

Scroll right to see more
 ConditionsComfort  
Time TempWeatherWind HumidityBarometerVisibility
7:20 AM
Wed, Sep 28
61 °FPassing clouds.12 mph59%30.24 "HgN/A
6:50 AM59 °FClear.12 mph63%30.24 "Hg10 mi
6:20 AM57 °FClear.12 mph72%30.24 "Hg10 mi
5:50 AM57 °FClear.9 mph72%30.27 "Hg10 mi
5:20 AM59 °FClear.8 mph72%30.27 "Hg10 mi
4:50 AM57 °FPassing clouds.9 mph77%30.27 "HgN/A
4:20 AM57 °FPartly cloudy.9 mph77%30.27 "HgN/A
3:50 AM57 °FPartly cloudy.8 mph77%30.27 "HgN/A
3:20 AM57 °FPassing clouds.9 mph77%30.27 "HgN/A
2:20 AM54 °FClear.7 mph88%30.30 "Hg10 mi
1:50 AM54 °FClear.6 mph88%30.30 "Hg10 mi
1:20 AM55 °FClear.7 mph77%30.30 "Hg10 mi
12:50 AM57 °FClear.5 mph72%30.30 "Hg10 mi
12:20 AM57 °FClear.7 mph77%30.30 "Hg10 mi
11:50 PM
Tue, Sep 27
55 °FClear.5 mph88%30.30 "Hg10 mi
11:20 PM55 °FClear.3 mph88%30.30 "Hg10 mi
10:50 PM57 °FPassing clouds.3 mph82%30.30 "HgN/A
10:20 PM57 °FClear.3 mph82%30.30 "Hg10 mi
9:50 PM57 °FClear.1 mph82%30.30 "Hg10 mi
9:20 PM57 °FClear.2 mph82%30.30 "Hg10 mi
8:50 PM59 °FClear.1 mph72%30.30 "Hg10 mi
8:20 PM61 °FClear.2 mph68%30.27 "Hg10 mi
7:50 PM61 °FClear.3 mph68%30.27 "Hg10 mi
7:20 PM64 °FClear.5 mph60%30.27 "Hg10 mi
6:50 PM68 °FSunny.5 mph53%30.27 "Hg10 mi
6:20 PM72 °FSunny.6 mph44%30.27 "Hg10 mi
5:50 PM72 °FPassing clouds.6 mph44%30.27 "HgN/A
5:20 PM72 °FPassing clouds.6 mph44%30.27 "HgN/A
4:50 PM72 °FPassing clouds.7 mph44%30.27 "HgN/A
4:20 PM72 °FPassing clouds.7 mph44%30.27 "HgN/A
3:50 PM72 °FPassing clouds.10 mph44%30.27 "HgN/A
3:20 PM72 °FPassing clouds.7 mph47%30.27 "HgN/A
2:50 PM72 °FPassing clouds.7 mph50%30.30 "HgN/A
2:20 PM70 °FPassing clouds.8 mph50%30.30 "HgN/A
1:50 PM70 °FPassing clouds.7 mph53%30.30 "HgN/A
1:20 PM68 °FSunny.2 mph53%30.30 "Hg10 mi
12:50 PM68 °FSunny.3 mph53%30.30 "Hg10 mi
12:20 PM66 °FSunny.2 mph60%30.30 "Hg10 mi
11:50 AM64 °FSunny.3 mph64%30.33 "Hg10 mi
11:20 AM64 °FPassing clouds.2 mph64%30.30 "HgN/A
10:50 AM63 °FPassing clouds.2 mph68%30.30 "HgN/A
10:20 AM59 °FPassing clouds.2 mph77%30.30 "HgN/A
9:50 AM57 °FPassing clouds.3 mph82%30.30 "HgN/A
9:20 AM54 °FPassing clouds.3 mph94%30.30 "HgN/A
8:50 AM50 °FFog.2 mph94%30.30 "HgN/A
8:20 AM46 °FLight fog.No wind100%30.30 "HgN/A
Weather by CustomWeather, © 2016

See weather overviewHow to use our weather pages